WESTFORD NEEDLES, 3257

Orbit data source: Space-Track

WESTFORD NEEDLES, 3257 is space debris in LEO originally from a launch on Thu, 09 May 1963 UTC launched from the Air Force Western Test Range (AFWTR). Debris objects in space refer to the collection of defunct objects orbiting the Earth. Examples of debris include non-operational satellites, rocket bodies, and fragments generated from explosions, collisions, or faulty payload assembly.

Loading next visibility...
Identifier
3257, 1963-014BX
Orbit
LEO
Country
Flag of USUS
Related business
Manufacturer
Unknown
Mission
Spacecraft
Bus & Motor
Unknown
Mass
Unknown
Launch date (UTC)
1963-05-09 (62 years ago)
Launch vehicle
Unknown
Launch site
Air Force Western Test Range (AFWTR)
Object type
Payload
Rocket body
Debris
Shape & HBR
Unknown shape, 1.1 m
Radar Cross Section
Medium (>0.1 m² and <1 m²)

Expand to show TLE details & history
Last TLE update: 3 days ago

TLE from 3 days ago
0 WESTFORD NEEDLES
1 03257U 63014BX  25285.12458408  .00000451  00000-0  20026+0 0  9994
2 03257  87.3484 171.7002 0301035  50.4366 312.2678  8.65315207 38475
Epoch: 2025-10-12T02:59Z
TLE epoch observation values (Epoch: 2025-10-12T02:59:24.064Z)
Latitude
-0.00001°
Longitude
105.90372°
Altitude
3,448.186 km
Speed
6.432 km/s
True Right ascension
11h 26m 48s
True Declination
0° 00' 00"
Sunlit
Object was in daylight at epoch
Visualization orbit readout
Latitude
Unknown
Longitude
Unknown
Altitude
Unknown
Speed
Unknown
Apparent Right ascension
Unknown
Apparent Declination
Unknown
Sunlit
N/A
Visualization observer readout
Local Sidereal Time
15:43:23
Azimuth
Unknown
Elevation
Unknown
Doppler factor
Unknown
Orbital elements
Apogee altitude
3,943.265 km
Perigee altitude
3,340.004 km
Semi-major axis
10,019.772 km
Eccentricity
0.0301
Inclination
87.3484°
RAAN
171.7002°
Arg. of periapsis
50.4366°
True anomaly
309.64976°
Mean anomaly
312.2678°
Eccentric anomaly
310.96539°
Mean motion
2.164 °/min
Orbital period
166.36 mins
BSTAR
0.20026

Documentation

Showing up to 5 results
|